Regional Weather Roundup
Issued by NWS Pendleton, OR

Home | Current Version | Previous Version | Text Only | Print | Product List | Glossary On
Versions: 1 2 3 4 5 6 7 8 9 10 11 12 13 14 15 16 17 18 19 20 21 22 23 24 25 26 27 28 29 30 31 32 33 34 35 36 37 38 39 40 41 42 43 44 45 46 47 48 49 50
000
ASUS46 KPDT 260925
RWRPDT
PENDLETON REGIONAL WEATHER ROUNDUP
NATIONAL WEATHER SERVICE PENDLETON OREGON
200 AM PDT SUN OCT 26 2014

NOTE: FAIR INDICATES FEW OR NO CLOUDS BELOW 12,000 FEET WITH NO
SIGNIFICANT WEATHER AND/OR OBSTRUCTIONS TO VISIBILITY.

# INDICATES UNOFFICIAL STATION AND DATA

WAZ520-261010-
EAST SLOPES OF WASHINGTON CASCADES

CITY            SKY/WX      TMP DP  RH  WIND    PRES   REMARKS
#BULLFROG 2SW   N/A         63  43  48  CALM    29.42F
#BUMPING DAM    N/A         39  N/A N/A S5      N/A
#CLE ELUM HS    N/A         45  36  70  W8      29.74R
#CLE ELUM 2NW   N/A         44  35  70  SW3     N/A
#CLE ELUM LAKE  N/A         N/A N/A N/A SW5     29.73R
#CLIFFDEL 2NW   N/A         39  38  96  CALM    N/A
#GLENWOOD       N/A         44  41  89  S5      29.86R
#MANASTASH CYN  N/A         40  36  85  CALM    29.77R
#NELSON 3SW     N/A         41  34  76  N6      29.96R
#NILE           N/A         40  39  96  CALM    29.04R
#RONALD 2NW     N/A         42  38  86  E3      29.67R
#SNOWDEN        N/A         43  40  89  E2      N/A
#TEANAWAY 4NE   N/A         46  37  71  CALM    N/A
#TROUT LAKE 1NE N/A         44  41  89  NW7     29.88R
$$

WAZ521-261010-
SIMCOE HIGHLANDS

CITY            SKY/WX      TMP DP  RH  WIND    PRES   REMARKS
#BICKLETON HS   N/A         42  35  76  W15G28  29.91S WCI 34
#CENTERVILLE 4W N/A         46  42  86  W13     29.64R WCI 40
#CENTERVILLE 1SWN/A         44  39  82  W10     29.86R
#GOLDENDALE     N/A         46  43  89  SW7     N/A
#GOLDENDALE 1NE N/A         47  42  83  S6      N/A
#GOLDENDALE 1S  N/A         45  42  89  SW5     29.87R
#GOLDENDALE 5WNWN/A         45  42  89  SW9     29.88R
#GOODNOE HILLS  N/A         49  42  77  W17     29.84R WCI 43
#LYLE 6NE       N/A         46  43  89  SW8     29.86R
$$

WAZ026-261010-
KITTITAS VALLEY

CITY            SKY/WX      TMP DP  RH  WIND    PRES   REMARKS
ELLENSBURG AP   LGT RAIN    48  38  68  W10     29.77R
#ELLENSBURG CWU N/A         47  38  71  NW6     29.72R
#ELLENSBURG 3NE N/A         45  39  79  NW3     29.78R
#ELLENSBURG     N/A         49  43  80  W1      N/A
#KITTITAS 3S    N/A         44  39  82  CALM    29.74R
#THORP 6N       N/A         43  38  82  W15G26  29.77R WCI 36
$$

WAZ027-261010-
YAKIMA VALLEY

CITY            SKY/WX      TMP DP  RH  WIND    PRES   REMARKS
SUNNYSIDE AP    PTCLDY      50  37  61  SW12    29.83R
YAKIMA AIRPORT  MOCLDY      51  37  59  W7      29.81R
YAKIMA-VAGABOND PTCLDY      49  36  61  SW18G25 29.80R WCI 43
#COWICHE 1N     N/A         47  36  65  W8      29.95R
#DONALD 2NE     N/A         47  38  71  SE3     30.15R
#GRANDVIEW      N/A         52  38  59  SW2     29.86R
#MABTON         N/A         53  42  66  S7      29.83R
#MOXEE 2E       N/A         48  33  56  W6      29.80R
#NACHES 2SW     N/A         47  40  76  W7      29.46S
#SELAH 8E       N/A         45  36  70  S15     N/A    WCI 38
#TERRACE HTS    N/A         45  39  79  CALM    29.78R
#WAPATO 4NE     N/A         47  38  71  SE3     30.15R
#WEST VALLEY    N/A         49  39  68  SW2     29.78R
#W YAKIMA       N/A         49  39  68  W2      29.80R
#WHITE SWAN 5E  N/A         51  41  68  SW16G25 29.79R
#WILEY CITY 3W  N/A         46  32  58  CALM    29.96S
$$

WAZ028-261010-
LOWER COLUMBIA BASIN...WASHINGTON

CITY            SKY/WX      TMP DP  RH  WIND    PRES   REMARKS
PASCO           PTCLDY      54  43  66  SW22    29.85R
PROSSER AWOS    N/A         52  41  66  SW12    29.88R
RICHLAND AWOS   PTCLDY      54  41  61  SW18G30 29.83R
#BASIN CITY 5SW N/A         52  43  71  W2      29.79R
#BENTON CITY    N/A         51  42  71  S22G35  29.73R
#CONNELL 5N     N/A         48  42  80  SW17G29 29.79R WCI 42
#CONNELL 5NW    N/A         49  43  80  SW10    29.76R
#ELTOPIA 6NW    N/A         51  43  74  SW16G35 28.77R
#KENNEWICK      N/A         63  43  48  CALM    29.42F
#KENNEWICK 3S   N/A         51  43  74  S9      29.84R
#PASCO-BROADMOORN/A         54  43  66  S8      29.73R
#PATERSON       N/A         53  43  69  W14     29.86R
#PROSSER        N/A         52  39  61  S20G35  29.84R
#SAGEMOOR 2W    N/A         53  43  69  S7      29.67R
#TOUCHET 2S     N/A         56  41  57  SW14G24 29.85R
#WEST PASCO     N/A         55  43  64  S12     29.83R
$$

WAZ029-261010-
FOOTHILLS OF THE BLUES...WASHINGTON

CITY            SKY/WX      TMP DP  RH  WIND    PRES   REMARKS
WALLA WALLA AP  CLOUDY      54  39  57  SW22    29.87R
#LOWDEN 2SE     N/A         56  42  59  W18G26  29.82R
#PLEASANT VIEW 1N/A         48  41  77  SW23G35 29.83R WCI 40
#PRESCOTT       N/A         52  43  71  CALM    29.84
#WHITMAN COLLEGEN/A         55  40  57  S12     29.95R
#WAITSBURG 8N   N/A         48  30  49  S10     29.79R
#WALLA WALLA 5E N/A         52  39  61  CALM    N/A
#WALLA WALLA U  N/A         56  41  57  CALM    29.87R
#WHITMAN MISSIONN/A         56  41  57  SW18G28 29.86R
$$

WAZ030-261010-
BLUE MOUNTAINS...WASHINGTON

CITY            SKY/WX      TMP DP  RH  WIND    PRES   REMARKS
$$

ORZ009-041-WAZ024-261010-
COLUMBIA RIVER GORGE

CITY            SKY/WX      TMP DP  RH  WIND    PRES   REMARKS
HOOD RIVER AP   PTCLDY      46  45  96  CALM    29.92R
THE DALLES AP   LGT RAIN    52  43  71  W16G29  29.90R
#ARLINGTON AIRPON/A         50  40  68  SW10    29.99F
#ARLINGTON HS   N/A         52  40  63  W2      29.83R
#CELILO DOT     N/A         52  39  61  SW6     N/A
#LYLE           N/A         53  46  77  NW3     29.92R
#MARYHILL 2W    N/A         50  45  83  S2      N/A
#MOSIER 1S      N/A         48  36  63  CALM    N/A
#MURDOCK        N/A         53  46  77  W3      29.94R
#RUFUS DOT      N/A         53  41  64  NW8G33  N/A

$$

ORZ510-261010-
NORTH CENTRAL OREGON

CITY            SKY/WX      TMP DP  RH  WIND    PRES   REMARKS
#CHENOWITH 1W   N/A         45  41  86  W18     N/A    WCI 37
#COW CYN RST AREN/A         41  36  82  SW9     N/A
#DUFUR 9E       N/A         44  37  76  SW18G25 29.95R WCI 36
#GRASS VALLEY   N/A         42  38  86  S2      N/A
#GRASS VALLEY 1SN/A         43  37  79  SW13    29.94R WCI 36
#KENT DOT       N/A         43  31  62  SW21    N/A    WCI 34
#MAUPIN SCHOOL  N/A         50  38  63  SW6     28.82R
#MORO SCHOOL    N/A         46  42  86  SW5     29.93R
#SHANIKO 5WSW   N/A         39  34  82  S12     N/A    WCI 32
#SHANIKO 4NW    N/A         40  35  82  SW13    29.92R WCI 32
#TYGH VALLEY 2NEN/A         47  39  74  W6      29.91R
#WAPANITIA AIRPON/A         44  37  76  SW10    29.93R
#WASCO DOT      N/A         48  38  68  SW1     N/A
#WASCO 5NE      N/A         45  39  79  N1      29.90R
$$

ORZ511-261010-
CENTRAL OREGON

CITY            SKY/WX      TMP DP  RH  WIND    PRES   REMARKS
BEND AIRPORT    PTCLDY      41  32  70  SW13    30.00R WCI 34
MADRAS AIRPORT  PTCLDY      43  36  76  SW14    29.98R WCI 36
PRINEVILLE AP   MOCLDY      43  36  76  SW6     30.00R
REDMOND AIRPORT PTCLDY      42  32  67  NW3     29.98R
#BEND 6E        N/A         41  30  65  CALM    29.92R
#BEND 1SW       N/A         39  34  82  SW3     N/A
#BEND-KIM LN    N/A         41  34  76  SW6     29.95R
#CULVER         N/A         43  35  73  S13     29.93R WCI 36
#LAKE BILLY CHINN/A         42  24  48  S7      30.05R
#POWELL BUTTE 3EN/A         44  34  68  SW9     N/A
#POWELL BUTTE   N/A         42  34  73  SW5     29.62R
#PRINEVILLE 3N  N/A         43  36  76  CALM    29.92R
#WARM SPRINGS   N/A         47  38  71  CALM    29.92R


ORZ509-261010-
EAST SLOPES OF OREGON CASCADES

CITY            SKY/WX      TMP DP  RH  WIND    PRES   REMARKS
#LA PINE DOT    N/A         37  33  85  S3      N/A
#LA PINE 4NW    N/A         37  33  85  CALM    30.02R
#LAVA BUTTE DOT N/A         35  33  92  CALM    N/A
#SISTERS AIRPOR N/A         40  39  96  N6      29.91S
#SISTERS ODOT   N/A         42  N/A N/A SE6     N/A
#SISTERS 3N     N/A         37  32  82  CALM    29.98R
#SUNRIVER       N/A         38  35  89  SW2     29.87R
#SUNRIVER AP    N/A         37  34  89  SW2     29.94R
#SUTTLE LK DOT  N/A         32  32  100 W51G77  N/A    WCI 14
#TUMALO 3W      N/A         41  32  70  S1      29.84R
#WANOGA BUTTE D N/A         29  28  96  W7      N/A

$$

ORZ044-261010-
LOWER COLUMBIA BASIN...OREGON

CITY            SKY/WX      TMP DP  RH  WIND    PRES   REMARKS
HERMISTON       MOCLDY      54  39  57  SW13    29.90R
#BOARDMAN 3W    N/A         52  40  63  S9      29.59R
#BOARDMAN 8SW   N/A         50  42  74  SW6     29.90R
#ECHO 8SW       N/A         53  38  57  W7      29.86R
#IONE SCHOOL    N/A         53  40  61  SW12    29.89R
#IRRIGON 4NW    N/A         54  42  64  S15     N/A
#UMATILLA SCHOOLN/A         52  45  77  S6      29.91R
#UMATILLA       N/A         55  39  55  SW7     29.86R
$$

ORZ507-261010-
NORTHERN FOOTHILLS OF THE BLUES

CITY            SKY/WX      TMP DP  RH  WIND    PRES   REMARKS
PENDLETON AIRPT MOCLDY      51  38  61  W8      29.90R
#ADAMS 3WNW     N/A         49  40  71  W8      29.88R
#ATHENA         N/A         50  39  66  W1      29.90R
#CAYUSE         N/A         52  40  63  W5      29.88R
#HELIX SCHOOL   N/A         49  39  68  SW15G25 29.86R WCI 43
#HELIX 3N       N/A         49  39  68  W22G33  29.85R WCI 42
#HOLDMAN 5SE    N/A         52  41  66  SW12    29.91R
#HOLDMAN 6E     N/A         50  39  66  N18G29  29.68R
#M-F FERNDALE   N/A         55  39  55  CALM    29.87R
#M-F GROVE ELEM N/A         54  37  52  SW2     29.88R
#M-FREEWATER 5SEN/A         54  40  59  SW8     29.90R
#PENDLETON DNTN N/A         55  33  43  CALM    28.67S
#PDT AQUATIC CTRN/A         55  36  49  W3      29.88R
#PDT SUNRIDGE   N/A         54  40  59  W5      29.91R
#PENDLETON 7NW  N/A         50  39  66  W6      31.13S
#PILOT ROCK     N/A         51  35  54  CALM    29.93R
#TUTUILLA       N/A         53  39  59  W9      29.90R
#UMAPINE 2E     N/A         56  41  57  SW13    29.84R
#WESTON SCHOOL  N/A         50  36  58  W7      29.86R

$$

ORZ508-261010-
SOUTHERN FOOTHILLS OF THE BLUES

CITY            SKY/WX      TMP DP  RH  WIND    PRES   REMARKS
LEXINGTON       PTCLDY      50  39  66  S13     29.93R
#AJAX           N/A         47  32  56  S21G41  29.84R WCI 39
#CONDON SCHOOL  N/A         45  38  76  CALM    29.88R
#CONDON 5W      N/A         42  35  76  SW20G31 29.88R WCI 33
#HEPPNER EOC    N/A         49  39  68  N7      29.85R
#HEPPNER 4NE    N/A         46  38  73  S8      29.88R
#LEXINGTON 2SE  N/A         52  40  63  SW5     29.89R
#MIKKALO        N/A         49  37  63  SW7     29.89R
#OLEX 4N        N/A         50  40  68  SW14    29.89R
#RUGGS 5NE      N/A         46  37  71  SW16    30.07R WCI 39
#RUGGS 2SW      N/A         47  38  71  W14     29.90R WCI 41

$$

ORZ502-503-261010-
BLUE MOUNTAINS

CITY            SKY/WX      TMP DP  RH  WIND    PRES   REMARKS
MEACHAM         CLOUDY      45  34  65  VRB5    29.91R
#BATTLE MTN DOT N/A         40  38  92  S3      N/A
#HARDMAN 10S    N/A         40  34  79  S5      29.97R
#HEPPNER 15SE   N/A         42  34  73  E7      29.81R
#LADD CYN SMT   N/A         43  35  73  SW21    N/A    WCI 34
#LADD CREEK ODOTN/A         43  42  96  CALM    N/A
#N POWDER DOT   N/A         50  33  52  NW17    N/A
#PIKES PEAK     N/A         44  36  73  SW30G43 27.99S WCI 34
#TROY SCHOOL    N/A         56  39  53  W7      29.67R
#UKIAH          N/A         44  36  73  W5      29.91R
#WESTON 4E      N/A         45  37  73  SW7     29.78R
$$

ORZ505-261010-
JOHN DAY BASIN

CITY            SKY/WX      TMP DP  RH  WIND    PRES   REMARKS
JOHN DAY        PTCLDY      47  34  60  SW13    29.96R WCI 41
#JOHN DAY KJDY  N/A         47  41  79  CALM    30.03F
#MT. VERNON 5SE N/A         44  33  65  SE3     29.91R
#WINLOCK        N/A         45  32  60  NE5     30.03R
$$

ORZ506-261010-
OCHOCO AND JOHN DAY HIGHLANDS

CITY            SKY/WX      TMP DP  RH  WIND    PRES   REMARKS
#BUCK CREEK DOT N/A         43  41  93  SW14    N/A    WCI 36
#HORSE RIDGE DO N/A         39  31  73  S8      N/A
#KEYES SMT DOT  N/A         40  32  73  W8      N/A
#PAULINA SCHOOL N/A         43  34  70  SW3     29.97R
#PINE MTN OBS   N/A         30  28  92  SE7     N/A
#PRAIRIE CITY   N/A         40  35  82  CALM    30.04R
#SENECA         N/A         40  N/A N/A SW6     N/A
#SENECA 9NW     N/A         38  34  85  CALM    29.91R
$$

ORZ049-261010-
GRANDE RONDE VALLEY

CITY            SKY/WX      TMP DP  RH  WIND    PRES   REMARKS
LA GRANDE       MOCLDY      46  37  71  NE5     29.91R
#COVE           N/A         48  42  80  SW6     29.85R
#COVE SCHOOL    N/A         48  41  77  CALM    29.91R
#COVE 6NW       N/A         47  40  76  CALM    29.93R
#ELGIN 3N       N/A         51  33  50  W1      29.64R
#ELGIN 1E       N/A         53  35  50  NW8     N/A
#IMBLER SCHOOL  N/A         63  35  35  SW3     29.84S
#LADD CYN DOT   N/A         47  40  76  S6      N/A
#UNION 1S       N/A         50  41  71  N2      29.77R
$$

ORZ050-261010-
WALLOWA COUNTY

CITY            SKY/WX      TMP DP  RH  WIND    PRES   REMARKS
#ENTERPRISE AP  N/A         45  35  68  NW15G26 29.83R WCI 38
#ENTERPRISE HS  N/A         45  37  73  NW9     29.91R
#IMNAHA 10S     N/A         50  42  74  SW5     29.85R
#JOSEPH 3N      N/A         44  34  68  N10     29.89R
#JOSEPH 3W      N/A         43  36  76  CALM    29.74R
#LOSTINE        N/A         46  38  73  W5      29.65R
#MT HOWARD 8000 N/A         31  24  75  W6      29.88R
#PROMISE 1S     N/A         45  35  68  E7      29.89R
#SHEEP RDG 7000 N/A         32  30  92  CALM    29.70R
#WALLOWA SCHOOL N/A         48  39  71  CALM    30.77R



$$



USA.gov is the U.S. government's official web portal to all federal, state and local government web resources and services.